STARLINK-32859, 62861

Orbit data source: Space-Track

STARLINK-32859, 62861 is a payload satellite owned by SpaceX/Seattle (US) in LEO that was launched on Sat, 01 Feb 2025 UTC via an FALCON 9 launch vehicle from the Air Force Western Test Range (AFWTR). Payload-class satellites include a variety of spacecraft equipped with specific instruments for various scientific and technological missions. These include communications satellites like Starlink; space stations such as the ISS; scientific satellites like the Hubble; Earth observation satellites from companies like Planet Labs, Umbra, and HawkEye 360; GPS; miniature CubeSats for education and research; and military/defense satellites.

Loading next visibility...
Identifier
62861, 2025-022H
Orbit
LEO
Last TLE update
10 hours ago
Origin
Manufacturer
SpaceX/Seattle
Mission
Operational Commercial Communications
Bus & Motor
STARLINK V2M, Unknown motor
Mass
730 kg wet, ~700 kg dry
Launch date (UTC)
2025-02-01 (3 months ago)
Launch vehicle
FALCON 9
Launch site
Air Force Western Test Range (AFWTR)
Object type
Payload
Rocket body
Debris
Shape & HBR
Box + 2 Pan, 29 m
Radar Cross Section
33.884 m², Large (>1 m²)

Expand to show TLE details & history

TLE from 10 hours ago
0 STARLINK-32859
1 62861U 25022H   25128.91668981  .00048886  00000-0  12246-2 0  9991
2 62861  53.1589 109.2571 0001439  70.4903 217.6518 15.39612329 15895
Epoch: 2025-05-08T22:00Z
Definitive object data (Epoch: 2025-05-08T22:00:01.999Z)
Latitude
-49.68647°
Longitude
-149.14954°
Altitude
465.155 km
Speed
7.633 km/s
True Right ascension
03h 11m 21s
True Declination
-49° 30' 34"
Sunlit
Object was in daylight at TLE epoch
Visualization TLE readout
Latitude
52.18479°
Longitude
-15.95717°
Altitude
452.479 km
Speed
7.648 km/s
Apparent Right ascension
07h 37m 05s
Apparent Declination
15° 33' 18"
Sunlit
Object is in daylight
Visualization observer readout
Local Sidereal Time
16:09:26
Azimuth
307.745° NW
Elevation
-16.482°
Doppler factor
1
Orbital elements
Apogee altitude
448.495 km
Perigee altitude
446.53 km
Semi-major axis
6,825.649 km
Eccentricity
0.0001439
Inclination
53.1589°
RAAN
109.2571°
Arg. of periapsis
70.4903°
True anomaly
217.64173°
Mean anomaly
217.6518°
Eccentric anomaly
217.64676°
Mean motion
3.84882 °/min
BSTAR
0.0012246
Orbital period
93.54 mins
Loading maneuver chart data...
Loading SW <> Apogee altitude chart data...
Loading historical data...
Loading historical data...
Loading historical data...
Loading historical data...
Loading historical data...
Loading historical data...
Loading historical data...

STARLINK-32859 Visibility forecast

Observer location: undefined°, undefined°

Span
Click to sort rows by Start time (UTC) header in descending order
Start Az.
Max El. time (UTC)
Max El. Az.
Max El.
End time (UTC)
End Az.
6 mins2025-05-09 08:09:20.617Z316.803° NNW2025-05-09 08:12:20.617Z81.514° E41.003°2025-05-09 08:15:20.617Z121.969° SE
4 mins2025-05-10 00:59:20.617Z205.697° SW2025-05-10 01:01:20.617Z100.636° ESE38.795°2025-05-10 01:03:20.617Z60.563° ENE
5 mins2025-05-10 07:31:20.617Z328.968° NNW2025-05-10 07:33:20.617Z33.268° NE36.362°2025-05-10 07:36:20.617Z109.165° ESE
|